Location: Newark
(7.0858°N, 171.3717°E)
Time: 03:15:19
(UTC+00:00)

A-11 Canister half - Pass Details

Date: 05 December 2020
Orbit: 1517 x 1683 km, 47.2° (Epoch: 16 January)

Event Time Altitude Azimuth Distance (km) Brightness Sun altitude
Rises 06:49:56 0° 320° (NW) 4,926 11.9 -8.4°
Reaches altitude 10° 06:53:07 10° 321° (NW) 3,937 11.4 -9.1°
Maximum altitude 07:03:17 88° 50° (NE) 1,665 9.2 -11.5°
Drops below altitude 10° 07:13:14 10° 140° (SE) 3,856 10.9 -13.8°
Sets 07:16:18 0° 140° (SE) 4,821 11.4 -14.5°
